Lid_Strength_Index
1 1 1 0 0 0 0 0 -0 -0 -0 -0 -0 -0 -0 -0 -0 -0 -0 -0 0 0 -0 0 1 0 1 1 0 1 1 1 3 2 -0 -0 -0 -0 -1 -1 -1 -1 -1
1 1 1 0 0 0 0 0 -0 0 -0 -0 -0 0 0 0 0 0 0 -0 0 1 1 1 1 1 1 1 0 1 1 1 2 3 0 0 -0 -1 -0 -0 -0 -1 -1
1 1 1 1 1 0 0 0 -0 -0 0 0 0 0 0 0 0 0 0 0 0 0 0 1 1 1 1 1 1 1 1 1 1 2 1 -0 -0 -0 0 -0 0 -1 -1
1 1 1 1 1 0 0 0 0 0 0 0 0 0 0 -0 0 0 0 0 0 1 0 0 1 1 1 2 1 1 1 1 1 2 2 2 0 0 0 1 2 0 0
1 1 1 1 0 0 0 0 0 0 0 0 0 0 0 0 0 0 0 1 1 1 0 0 1 1 1 1 1 1 1 2 2 2 2 2 2 2 2 2 3 1 1
1 1 1 1 1 1 1 1 1 1 0 0 0 0 1 1 2 2 1 1 1 1 1 0 0 1 1 2 2 3 2 2 3 3 3 3 3 3 3 3 4 4 4
1 1 1 1 1 1 1 1 1 1 1 1 1 0 1 0 3 2 2 0 0 1 1 1 1 0 0 0 2 2 3 3 2 2 3 4 3 3 3 3 3 4 4
1 1 1 1 1 1 1 2 1 1 1 1 1 1 1 1 3 3 2 -0 0 0 0 0 0 0 0 -0 0 0 0 0 1 1 0 1 1 1 2 2 3 3 2
1 1 1 1 2 1 2 2 1 1 1 1 1 1 1 1 4 5 2 0 1 1 0 0 0 1 5 4 0 1 1 2 5 4 3 3 2 2 2 1 2 3 4
1 1 1 1 2 2 1 2 2 2 1 1 1 1 2 0 6 5 2 1 1 2 2 3 6 4 7 6 0 1 1 1 1 1 1 2 1 2 2 0 2 3 3
1 1 1 1 1 1 1 1 2 2 1 2 1 1 1 2 3 6 4 0 1 1 2 2 3 6 7 7 5 0 1 0 1 -0 -0 -0 -0 -1 -0 -1 -1 1 2
1 2 1 1 1 1 2 1 2 2 2 3 3 3 3 2 5 6 6 4 3 2 2 2 3 6 6 5 2 5 4 2 -0 -0 -0 -0 -0 0 0 -0 -1 -1 -1
2 2 2 1 1 1 2 2 2 2 4 5 5 5 5 4 4 7 7 6 4 2 1 4 5 6 5 4 4 4 4 -0 0 0 0 1 1 1 0 -1 -0 -1 -1
2 2 2 2 2 2 2 2 2 4 5 6 5 5 5 5 5 6 5 4 4 3 3 2 3 3 3 2 2 2 1 2 2 2 1 0 -1 0 1 1 1 1 1
4 4 5 4 5 5 6 7 7 3 4 5 5 5 5 5 6 8 6 4 3 4 2 2 2 2 2 2 1 1 0 1 0 -0 0 0 1 1 0 0 1 1 2
5 5 4 3 2 3 4 4 7 9 9 10 8 4 6 10 12 12 12 11 10 8 3 3 3 2 2 1 1 1 1 1 -0 -0 -0 0 1 1 1 1 1 2 3
3 4 5 5 3 3 3 3 3 5 8 10 11 10 11 12 13 13 13 12 11 9 3 3 2 2 1 0 -0 0 1 1 -1 -0 0 0 0 1 1 2 2 2 2
2 6 4 4 4 4 3 3 3 4 5 6 10 12 14 14 14 14 13 11 5 6 2 2 2 1 0 -1 -0 0 1 0 -0 0 1 1 1 1 1 1 1 2 2
1 1 2 3 3 4 3 4 4 5 5 5 6 9 12 14 13 13 12 3 2 2 1 1 0 0 -0 -1 -1 -0 0 1 1 1 1 1 1 1 1 1 2 6 5
1 2 2 2 2 3 3 4 4 4 4 5 5 5 5 7 5 4 2 1 1 1 1 1 0 -0 -0 -1 -1 -0 1 1 1 1 1 1 1 1 1 2 2 3 2
0 0 3 1 3 3 3 3 4 4 4 4 4 3 5 2 2 1 1 1 1 1 0 0 0 0 -0 -0 -0 0 1 1 1 1 2 2 1 2 1 2 2 3 3
-0 -0 -0 1 1 1 1 1 1 1 2 2 1 1 6 1 1 0 0 0 -0 -1 -0 -1 -0 -0 -0 -1 -1 0 0 1 1 1 2 1 1 1 1 1 1 1 1
-0 -0 -0 1 1 1 1 1 1 1 1 1 1 1 1 1 0 0 -0 -0 -1 -1 -1 -1 -1 -0 -1 -1 -1 -1 0 0 0 0 1 1 1 1 1 1 1 1 2
-0 -0 0 1 0 0 0 1 1 3 1 1 1 0 0 0 0 0 -0 -1 -1 -1 -1 -1 -1 -1 -1 -1 -1 -1 -0 -0 0 -0 -0 0 1 2 1 1 2 2 2
-0 0 1 0 0 0 1 0 -0 0 1 0 0 0 0 0 0 0 0 -0 -1 -1 -1 -1 -1 -1 -1 -1 -1 -1 2 10 4 6 0 0 1 2 2 2 1 1 2
0 0 1 0 1 1 1 1 1 1 1 1 1 0 0 0 0 0 -0 -0 -0 -0 -1 -1 -1 -1 -1 -1 -1 7 11 13 6 13 3 2 1 1 2 1 1 2 2